QTR16K LEMG-OTHH

Flight info

Callsign QTR16K
Flight time N/A
Altitude 39000
Route NESDA DCT KUNEN DCT AMR DCT GATAS DCT TARIK UA44 MOS UA411 BNA UA31 CSO UW254 DIMAO UL874 OMENI DCT ARLOS/N0485F410 UN4 SALUN N705 MMA P751 DASUM Y234 FYM M872 WEJ L604 KFA M691 LADNA N318 HAYYA
Aircraft A359/H-SDE2E3GHIJ3J4J5LM1ORWXY/LB1D1

Departure

Time 2026-05-04 07:59
Airport Málaga-Costa del Sol Airport (LEMG)

Arrival

Time N/A
Airport Hamad International Airport (OTHH)
Time Latitude Longitude Altitude Speed Heading
2026-05-04 07:34 36.67305 -4.49151 39 ft 0 kts 69°
2026-05-04 07:46 36.67304 -4.49154 39 ft 2 kts 69°
2026-05-04 07:46 36.67300 -4.49171 40 ft 2 kts 84°
2026-05-04 07:47 36.67300 -4.49190 40 ft 2 kts 98°
2026-05-04 07:47 36.67303 -4.49208 40 ft 2 kts 110°
2026-05-04 07:47 36.67309 -4.49225 41 ft 2 kts 123°
2026-05-04 07:49 36.67353 -4.49287 42 ft 0 kts 132°
2026-05-04 07:50 36.67353 -4.49286 42 ft 0 kts 132°
2026-05-04 07:51 36.67344 -4.49274 42 ft 3 kts 132°
2026-05-04 07:51 36.67318 -4.49251 41 ft 4 kts 167°
2026-05-04 07:51 36.67293 -4.49276 42 ft 4 kts 238°
2026-05-04 07:51 36.67290 -4.49314 42 ft 4 kts 276°
2026-05-04 07:52 36.67302 -4.49346 43 ft 4 kts 305°
2026-05-04 07:52 36.67326 -4.49385 43 ft 6 kts 309°
2026-05-04 07:52 36.67361 -4.49441 43 ft 9 kts 307°
2026-05-04 07:52 36.67408 -4.49507 43 ft 11 kts 314°
2026-05-04 07:53 36.67465 -4.49583 45 ft 12 kts 313°
2026-05-04 07:54 36.68125 -4.49493 40 ft 18 kts 43°
2026-05-04 07:55 36.68232 -4.49374 36 ft 22 kts 42°
2026-05-04 07:55 36.68259 -4.49203 35 ft 22 kts 119°
2026-05-04 07:55 36.68180 -4.49025 33 ft 24 kts 118°
2026-05-04 07:55 36.68096 -4.48832 31 ft 22 kts 120°
2026-05-04 07:56 36.68025 -4.48658 32 ft 22 kts 115°
2026-05-04 07:56 36.67952 -4.48477 30 ft 24 kts 118°
2026-05-04 07:56 36.67874 -4.48283 29 ft 26 kts 115°
2026-05-04 07:56 36.67820 -4.48130 27 ft 18 kts 80°
2026-05-04 07:57 36.67923 -4.48046 26 ft 18 kts 349°
2026-05-04 07:57 36.67970 -4.48090 26 ft 0 kts 303°
2026-05-04 07:57 36.67970 -4.48091 26 ft 0 kts 303°
2026-05-04 07:57 36.68013 -4.48186 27 ft 40 kts 297°
2026-05-04 07:58 36.68243 -4.48730 30 ft 100 kts 298°
2026-05-04 07:58 36.68652 -4.49695 35 ft 150 kts 297°
2026-05-04 07:58 36.69145 -4.50847 388 ft 158 kts 295°
2026-05-04 07:58 36.69740 -4.52108 631 ft 181 kts 309°
2026-05-04 07:59 36.70732 -4.53247 913 ft 203 kts 318°
2026-05-04 07:59 36.71785 -4.54426 1524 ft 208 kts 314°
2026-05-04 07:59 36.72800 -4.55698 2213 ft 210 kts 310°
2026-05-04 07:59 36.73782 -4.57070 2898 ft 213 kts 308°
2026-05-04 08:00 36.74720 -4.58454 3638 ft 214 kts 312°
2026-05-04 08:00 36.75934 -4.59521 4371 ft 219 kts 335°
2026-05-04 08:00 36.77397 -4.60109 5056 ft 224 kts 341°
2026-05-04 08:02 36.87703 -4.54704 9279 ft 283 kts 40°
2026-05-04 08:02 36.89179 -4.53046 9939 ft 287 kts 40°
2026-05-04 08:02 36.90656 -4.51410 10578 ft 290 kts 40°
2026-05-04 08:03 36.92202 -4.49706 11212 ft 295 kts 40°
2026-05-04 08:03 36.93722 -4.48029 11831 ft 298 kts 40°
2026-05-04 08:03 36.95290 -4.46298 12461 ft 302 kts 40°
2026-05-04 08:03 36.96784 -4.44457 13065 ft 306 kts 56°
2026-05-04 08:04 36.97567 -4.42018 13641 ft 304 kts 88°
2026-05-04 08:04 36.97364 -4.39406 14012 ft 308 kts 109°
2026-05-04 08:04 36.96740 -4.36815 14396 ft 318 kts 112°
2026-05-04 08:04 36.96065 -4.34171 14925 ft 324 kts 111°
2026-05-04 08:05 36.95410 -4.31505 15511 ft 327 kts 111°
2026-05-04 08:05 36.94801 -4.28920 16083 ft 330 kts 110°
2026-05-04 08:05 36.94189 -4.26269 16658 ft 332 kts 110°
2026-05-04 08:05 36.93553 -4.23487 17247 ft 334 kts 110°
2026-05-04 08:06 36.92905 -4.20663 17677 ft 342 kts 110°
2026-05-04 08:06 36.92232 -4.17749 17933 ft 355 kts 110°
2026-05-04 08:06 36.91607 -4.15046 18159 ft 367 kts 110°
2026-05-04 08:06 36.90895 -4.11960 18404 ft 379 kts 110°
2026-05-04 08:08 36.85251 -3.87565 20187 ft 449 kts 109°
2026-05-04 08:08 36.84374 -3.83793 20659 ft 451 kts 109°
2026-05-04 08:10 36.82420 -3.51936 24038 ft 477 kts 91°
2026-05-04 08:11 36.82484 -3.47782 24414 ft 479 kts 91°
2026-05-04 08:11 36.82598 -3.39434 25128 ft 484 kts 91°
2026-05-04 08:11 36.82650 -3.35261 25468 ft 486 kts 91°
2026-05-04 08:12 36.82698 -3.31225 25786 ft 488 kts 92°
2026-05-04 08:12 36.82747 -3.27032 26101 ft 490 kts 92°
2026-05-04 08:12 36.82795 -3.22785 26404 ft 492 kts 92°
2026-05-04 08:12 36.82841 -3.18494 26707 ft 493 kts 92°
2026-05-04 08:13 36.82886 -3.14204 26999 ft 495 kts 92°
2026-05-04 08:13 36.82928 -3.09921 27271 ft 497 kts 91°
2026-05-04 08:13 36.82970 -3.05595 27512 ft 499 kts 91°
2026-05-04 08:13 36.83009 -3.01296 27734 ft 502 kts 91°
2026-05-04 08:14 36.83047 -2.96950 27975 ft 504 kts 91°
2026-05-04 08:14 36.83085 -2.92547 28299 ft 504 kts 91°
2026-05-04 08:14 36.83122 -2.88215 28643 ft 503 kts 91°
2026-05-04 08:16 36.83256 -2.57843 30953 ft 498 kts 91°
2026-05-04 08:16 36.83267 -2.53579 31250 ft 497 kts 91°
2026-05-04 08:16 36.83276 -2.49234 31554 ft 496 kts 91°
2026-05-04 08:17 36.83284 -2.44962 31839 ft 496 kts 91°
2026-05-04 08:17 36.83291 -2.40657 32118 ft 495 kts 91°
2026-05-04 08:17 36.83221 -2.36418 32395 ft 494 kts 94°
2026-05-04 08:17 36.82928 -2.32169 32663 ft 492 kts 99°
2026-05-04 08:19 36.75238 -2.04499 34344 ft 482 kts 117°
2026-05-04 08:19 36.73801 -2.00711 34563 ft 482 kts 117°
2026-05-04 08:20 36.72389 -1.96975 34773 ft 481 kts 117°
2026-05-04 08:20 36.70962 -1.93197 34977 ft 481 kts 117°
2026-05-04 08:20 36.69547 -1.89451 35172 ft 480 kts 117°
2026-05-04 08:20 36.68118 -1.85683 35366 ft 480 kts 117°
2026-05-04 08:21 36.66707 -1.81971 35548 ft 479 kts 117°
2026-05-04 08:21 36.65284 -1.78236 35725 ft 479 kts 117°
2026-05-04 08:21 36.63854 -1.74486 35897 ft 479 kts 117°
2026-05-04 08:21 36.62426 -1.70746 36058 ft 478 kts 117°
2026-05-04 08:22 36.61001 -1.67016 36220 ft 478 kts 117°
2026-05-04 08:22 36.59584 -1.63311 36376 ft 478 kts 117°
2026-05-04 08:24 36.49587 -1.37280 37251 ft 478 kts 117°
2026-05-04 08:24 36.48163 -1.33587 37341 ft 479 kts 118°
2026-05-04 08:24 36.45297 -1.26140 37499 ft 480 kts 118°
2026-05-04 08:25 36.42394 -1.18638 37650 ft 481 kts 118°
2026-05-04 08:25 36.40958 -1.14935 37758 ft 480 kts 118°
2026-05-04 08:25 36.39516 -1.11237 37936 ft 478 kts 118°
2026-05-04 08:26 36.38070 -1.07561 38155 ft 474 kts 118°
2026-05-04 08:27 36.28036 -0.82264 38753 ft 466 kts 118°
2026-05-04 08:28 36.25216 -0.75181 38773 ft 467 kts 118°
2026-05-04 08:28 36.22353 -0.68002 39005 ft 462 kts 118°
2026-05-04 08:29 36.20940 -0.64463 39135 ft 461 kts 118°
2026-05-04 08:29 36.19527 -0.60933 39074 ft 462 kts 118°
2026-05-04 08:31 36.08131 -0.32591 39030 ft 466 kts 118°
2026-05-04 08:33 35.96744 -0.03834 39031 ft 468 kts 117°
2026-05-04 08:35 35.93455 0.23276 39025 ft 477 kts 77°
2026-05-04 08:35 35.94539 0.27133 39026 ft 480 kts 71°
2026-05-04 08:35 35.97147 0.34690 39028 ft 480 kts 69°
2026-05-04 08:37 36.06101 0.60397 39031 ft 480 kts 70°
2026-05-04 08:38 36.08702 0.67955 39029 ft 480 kts 70°
2026-05-04 08:38 36.11292 0.75521 39029 ft 479 kts 70°
2026-05-04 08:40 36.21621 1.05811 39029 ft 478 kts 70°
2026-05-04 08:41 36.24175 1.13348 39030 ft 479 kts 70°
2026-05-04 08:41 36.26755 1.20975 39029 ft 479 kts 69°
2026-05-04 08:42 36.29307 1.28527 39029 ft 479 kts 69°
2026-05-04 08:42 36.31871 1.36145 39029 ft 479 kts 69°
2026-05-04 08:43 36.34417 1.43731 39030 ft 479 kts 69°
2026-05-04 08:43 36.36966 1.51330 39029 ft 479 kts 69°
2026-05-04 08:44 36.39585 1.58946 39028 ft 479 kts 69°
2026-05-04 08:46 36.49962 1.89313 39030 ft 479 kts 69°
2026-05-04 08:46 36.52536 1.96894 39029 ft 479 kts 69°
2026-05-04 08:47 36.55110 2.04490 39029 ft 479 kts 69°
2026-05-04 08:47 36.57615 2.12132 39028 ft 478 kts 72°
2026-05-04 08:48 36.59577 2.19978 39029 ft 476 kts 78°
2026-05-04 08:48 36.60880 2.28048 39029 ft 474 kts 83°
2026-05-04 08:49 36.61659 2.36130 39030 ft 474 kts 85°
2026-05-04 08:50 36.64187 2.64591 39028 ft 474 kts 85°
2026-05-04 08:51 36.64901 2.72736 39029 ft 474 kts 86°
2026-05-04 08:51 36.65613 2.80896 39029 ft 474 kts 86°
2026-05-04 08:52 36.66295 2.88759 39029 ft 474 kts 86°
2026-05-04 08:52 36.66989 2.96868 39028 ft 475 kts 85°
2026-05-04 08:54 36.68247 3.29433 39029 ft 480 kts 97°
2026-05-04 08:55 36.67395 3.37674 39029 ft 480 kts 97°
2026-05-04 08:55 36.66518 3.45909 39029 ft 480 kts 97°
2026-05-04 09:01 36.56742 4.31614 39040 ft 480 kts 98°
2026-05-04 09:01 36.55767 4.39807 39047 ft 480 kts 98°
2026-05-04 09:02 36.54788 4.47986 39051 ft 480 kts 98°
2026-05-04 09:02 36.53806 4.56141 39053 ft 480 kts 98°
2026-05-04 09:03 36.52811 4.64362 39054 ft 480 kts 98°
2026-05-04 09:03 36.51815 4.72556 39054 ft 480 kts 99°
2026-05-04 09:04 36.50837 4.80571 39054 ft 480 kts 99°
2026-05-04 09:04 36.49924 4.87974 39055 ft 478 kts 99°
2026-05-04 09:05 36.48929 4.95971 39054 ft 477 kts 98°
2026-05-04 09:05 36.47937 5.04089 39051 ft 479 kts 97°
2026-05-04 09:06 36.47014 5.12151 39053 ft 482 kts 96°
2026-05-04 09:08 36.43205 5.44735 39084 ft 484 kts 97°
2026-05-04 09:08 36.42236 5.52859 39102 ft 484 kts 97°
2026-05-04 09:09 36.41253 5.61068 39120 ft 484 kts 97°
2026-05-04 09:09 36.40255 5.69359 39130 ft 484 kts 97°
2026-05-04 09:10 36.39266 5.77541 39135 ft 484 kts 97°
2026-05-04 09:10 36.38260 5.85793 39135 ft 484 kts 97°
2026-05-04 09:11 36.37292 5.94051 39137 ft 484 kts 97°
2026-05-04 09:11 36.36334 6.02290 39136 ft 484 kts 97°
2026-05-04 09:12 36.35371 6.10500 39137 ft 484 kts 97°
2026-05-04 09:14 36.31439 6.43410 39137 ft 484 kts 97°
2026-05-04 09:14 36.30442 6.51633 39136 ft 484 kts 96°
2026-05-04 09:15 36.29795 6.59936 39136 ft 482 kts 91°
2026-05-04 09:15 36.29830 6.68228 39134 ft 482 kts 85°
2026-05-04 09:17 36.32371 7.05293 39138 ft 481 kts 83°
2026-05-04 09:18 36.32920 7.13553 39137 ft 482 kts 82°
2026-05-04 09:18 36.33467 7.21814 39136 ft 483 kts 82°
2026-05-04 09:19 36.34014 7.30067 39137 ft 483 kts 82°
2026-05-04 09:19 36.34557 7.38380 39137 ft 483 kts 82°
2026-05-04 09:20 36.35091 7.46679 39137 ft 483 kts 82°
2026-05-04 09:20 36.35597 7.54666 39137 ft 484 kts 82°
2026-05-04 09:21 36.36102 7.62702 39137 ft 484 kts 82°
2026-05-04 09:21 36.36614 7.70976 39137 ft 483 kts 82°
2026-05-04 09:22 36.37121 7.79277 39137 ft 484 kts 82°
2026-05-04 09:22 36.37625 7.87583 39137 ft 484 kts 82°
2026-05-04 09:23 36.38123 7.95881 39137 ft 484 kts 82°
2026-05-04 09:23 36.38615 8.04164 39137 ft 484 kts 82°
2026-05-04 09:25 36.39889 8.37442 39137 ft 488 kts 91°
2026-05-04 09:26 36.39056 8.45788 39137 ft 491 kts 97°
2026-05-04 09:26 36.37748 8.54117 39137 ft 491 kts 98°
2026-05-04 09:27 36.36416 8.62406 39137 ft 491 kts 97°
2026-05-04 09:27 36.35095 8.70675 39137 ft 491 kts 98°
2026-05-04 09:28 36.33770 8.78962 39137 ft 491 kts 98°
2026-05-04 09:28 36.32438 8.87258 39137 ft 491 kts 98°
2026-05-04 09:29 36.31096 8.95563 39129 ft 493 kts 98°
2026-05-04 09:29 36.29743 9.03884 39119 ft 495 kts 97°
2026-05-04 09:30 36.28387 9.12205 39113 ft 497 kts 96°
2026-05-04 09:30 36.27019 9.20590 39111 ft 498 kts 96°
2026-05-04 09:31 36.25640 9.28985 39111 ft 498 kts 96°
2026-05-04 09:31 36.24492 9.37401 39110 ft 496 kts 93°
2026-05-04 09:32 36.23510 9.45818 39113 ft 496 kts 93°
2026-05-04 09:34 36.19494 9.79553 39153 ft 496 kts 94°
2026-05-04 09:34 36.18476 9.87942 39159 ft 496 kts 94°
2026-05-04 09:35 36.17448 9.96364 39162 ft 496 kts 94°
2026-05-04 09:35 36.16410 10.04793 39163 ft 496 kts 94°
2026-05-04 09:37 36.09067 10.37856 39163 ft 500 kts 99°
2026-05-04 09:38 36.07684 10.46232 39162 ft 496 kts 93°
2026-05-04 09:38 36.07034 10.54677 39162 ft 491 kts 86°
2026-05-04 09:39 36.06809 10.63078 39164 ft 491 kts 86°
2026-05-04 09:39 36.06587 10.71471 39163 ft 491 kts 87°
2026-05-04 09:40 36.06346 10.79853 39163 ft 491 kts 87°
2026-05-04 09:40 36.06087 10.88307 39163 ft 491 kts 86°
2026-05-04 09:42 36.05019 11.21818 39164 ft 488 kts 85°
2026-05-04 09:43 36.04737 11.30150 39164 ft 488 kts 85°
2026-05-04 09:43 36.04450 11.38528 39165 ft 488 kts 85°
2026-05-04 09:44 36.04165 11.46865 39167 ft 488 kts 85°
2026-05-04 09:46 36.01782 11.80349 39183 ft 491 kts 89°
2026-05-04 09:46 36.01136 11.88755 39193 ft 492 kts 89°
2026-05-04 09:47 36.00490 11.97084 39207 ft 492 kts 89°
2026-05-04 09:49 35.97885 12.30007 39245 ft 491 kts 89°
2026-05-04 09:51 35.95506 12.59102 39246 ft 491 kts 89°
2026-05-04 09:51 35.94818 12.67365 39245 ft 491 kts 89°
2026-05-04 09:52 35.94114 12.75738 39245 ft 492 kts 89°
2026-05-04 09:52 35.93405 12.84081 39245 ft 492 kts 89°
2026-05-04 09:53 35.92686 12.92488 39246 ft 492 kts 89°
2026-05-04 09:53 35.91967 13.00807 39246 ft 492 kts 89°
2026-05-04 09:54 35.91231 13.09192 39246 ft 490 kts 88°
2026-05-04 09:54 35.90501 13.17491 39247 ft 489 kts 87°
2026-05-04 09:55 35.89764 13.25817 39241 ft 488 kts 87°
2026-05-04 09:55 35.89010 13.34005 39245 ft 487 kts 87°
2026-05-04 09:56 35.88249 13.42302 39245 ft 487 kts 87°
2026-05-04 09:56 35.87522 13.50293 39246 ft 487 kts 87°
2026-05-04 09:57 35.86763 13.58612 39250 ft 488 kts 87°
2026-05-04 09:57 35.86040 13.66471 39255 ft 486 kts 87°
2026-05-04 09:58 35.85274 13.74767 39264 ft 488 kts 87°
2026-05-04 09:58 35.84503 13.83034 39269 ft 488 kts 87°
2026-05-04 10:00 35.81382 14.15909 39272 ft 488 kts 88°